| time (UTC) | temp F | wind direction | speed MPH | gust MPH | rain 1hr in | rain 24hr in | rain mn in | humidity % | barometer mb |
| 20260504070402 | 47 | 348 | 12.0 | 22.0 | 0.00 | 0.00 | 0.00 | 64 | 1012.6 |
| 20260504050403 | 51 | 1 | 7.0 | 12.0 | 0.00 | 0.00 | 0.00 | 48 | 1011.4 |
| 20260504045903 | 51 | 348 | 7.0 | 13.0 | 0.00 | 0.00 | 0.00 | 48 | 1011.3 |
| 20260504045403 | 51 | 347 | 10.0 | 17.0 | 0.00 | 0.00 | 0.00 | 48 | 1011.3 |
| 20260504044903 | 51 | 354 | 9.0 | 13.0 | 0.00 | 0.00 | 0.00 | 47 | 1011.3 |
| 20260504044403 | 51 | 348 | 11.0 | 17.0 | 0.00 | 0.00 | 0.00 | 47 | 1011.3 |
| 20260504043903 | 51 | 354 | 7.0 | 17.0 | 0.00 | 0.00 | 0.00 | 46 | 1011.2 |
| 20260504043403 | 52 | 3 | 10.0 | 15.0 | 0.00 | 0.00 | 0.00 | 45 | 1011.1 |
| 20260504042404 | 52 | 0 | 9.0 | 17.0 | 0.00 | 0.00 | 0.00 | 42 | 1010.9 |
| 20260504041905 | 52 | 0 | 12.0 | 23.0 | 0.00 | 0.00 | 0.00 | 41 | 1010.7 |
| 20260504040404 | 53 | 0 | 14.0 | 24.0 | 0.00 | 0.00 | 0.00 | 41 | 1010.3 |
| 20260504035903 | 53 | 0 | 10.0 | 15.0 | 0.00 | 0.00 | 0.00 | 41 | 1010.1 |
| 20260504035403 | 53 | 0 | 13.0 | 20.0 | 0.00 | 0.00 | 0.00 | 40 | 1010.0 |
| 20260504034903 | 54 | 0 | 13.0 | 18.0 | 0.00 | 0.00 | 0.00 | 41 | 1009.7 |
| 20260504033403 | 54 | 0 | 12.0 | 16.0 | 0.00 | 0.00 | 0.00 | 41 | 1009.3 |
| 20260504032903 | 54 | 0 | 13.0 | 17.0 | 0.00 | 0.00 | 0.00 | 41 | 1009.1 |
| 20260504031903 | 54 | 0 | 12.0 | 18.0 | 0.00 | 0.00 | 0.00 | 41 | 1008.8 |
| 20260504031403 | 54 | 0 | 10.0 | 16.0 | 0.00 | 0.00 | 0.00 | 41 | 1008.6 |
| 20260504030904 | 54 | 0 | 12.0 | 16.0 | 0.00 | 0.00 | 0.00 | 41 | 1008.4 |
| 20260504030403 | 54 | 0 | 10.0 | 17.0 | 0.00 | 0.00 | 0.00 | 41 | 1008.4 |
| 20260504025904 | 54 | 0 | 14.0 | 20.0 | 0.00 | 0.00 | 0.00 | 40 | 1008.3 |
| 20260504025403 | 55 | 0 | 10.0 | 23.0 | 0.00 | 0.00 | 0.00 | 40 | 1008.3 |
| 20260504024903 | 55 | 0 | 13.0 | 22.0 | 0.00 | 0.00 | 0.00 | 40 | 1008.2 |
| 20260504024403 | 55 | 0 | 13.0 | 18.0 | 0.00 | 0.00 | 0.00 | 40 | 1008.1 |
| 20260504023903 | 55 | 0 | 14.0 | 20.0 | 0.00 | 0.00 | 0.00 | 40 | 1008.0 |
| 20260504023403 | 56 | 0 | 16.0 | 22.0 | 0.00 | 0.00 | 0.00 | 39 | 1007.9 |
| 20260504022903 | 56 | 0 | 14.0 | 22.0 | 0.00 | 0.00 | 0.00 | 39 | 1007.8 |
| 20260504022403 | 56 | 0 | 14.0 | 23.0 | 0.00 | 0.00 | 0.00 | 39 | 1007.7 |
| 20260504021404 | 58 | 0 | 12.0 | 22.0 | 0.00 | 0.00 | 0.00 | 38 | 1007.3 |
| 20260504020903 | 59 | 0 | 10.0 | 16.0 | 0.00 | 0.00 | 0.00 | 38 | 1007.2 |
| 20260504020404 | 59 | 0 | 12.0 | 20.0 | 0.00 | 0.00 | 0.00 | 38 | 1007.0 |
| 20260504015903 | 60 | 0 | 14.0 | 22.0 | 0.00 | 0.00 | 0.00 | 37 | 1006.9 |
| 20260504015403 | 60 | 0 | 12.0 | 21.0 | 0.00 | 0.00 | 0.00 | 37 | 1006.8 |
| 20260504014903 | 61 | 0 | 11.0 | 18.0 | 0.00 | 0.00 | 0.00 | 37 | 1006.7 |
| 20260504014403 | 61 | 0 | 13.0 | 22.0 | 0.00 | 0.00 | 0.00 | 36 | 1006.6 |
| 20260504013903 | 61 | 0 | 9.0 | 17.0 | 0.00 | 0.00 | 0.00 | 37 | 1006.5 |
| 20260504013403 | 62 | 0 | 10.0 | 15.0 | 0.00 | 0.00 | 0.00 | 37 | 1006.5 |
| 20260504012904 | 62 | 41 | 10.0 | 20.0 | 0.00 | 0.00 | 0.00 | 36 | 1006.4 |
| 20260504012404 | 62 | 26 | 10.0 | 14.0 | 0.00 | 0.00 | 0.00 | 37 | 1006.3 |
| 20260504011903 | 63 | 23 | 11.0 | 16.0 | 0.00 | 0.00 | 0.00 | 37 | 1006.3 |
| 20260504011404 | 63 | 27 | 12.0 | 20.0 | 0.00 | 0.00 | 0.00 | 37 | 1006.2 |
| 20260504010904 | 63 | 11 | 9.0 | 13.0 | 0.00 | 0.00 | 0.00 | 37 | 1006.2 |
| 20260504010404 | 63 | 22 | 13.0 | 18.0 | 0.00 | 0.00 | 0.00 | 37 | 1006.1 |
| 20260504005904 | 63 | 23 | 12.0 | 20.0 | 0.00 | 0.00 | 0.00 | 36 | 1006.1 |
| 20260504005404 | 63 | 31 | 16.0 | 25.0 | 0.00 | 0.00 | 0.00 | 35 | 1006.0 |
| 20260504004904 | 63 | 27 | 13.0 | 24.0 | 0.00 | 0.00 | 0.00 | 35 | 1006.0 |
| 20260504004403 | 63 | 24 | 13.0 | 20.0 | 0.00 | 0.00 | 0.00 | 35 | 1005.9 |
| 20260504003903 | 64 | 29 | 14.0 | 23.0 | 0.00 | 0.00 | 0.00 | 35 | 1005.8 |
| 20260504002904 | 64 | 29 | 12.0 | 18.0 | 0.00 | 0.00 | 0.00 | 35 | 1005.7 |
| 20260504002404 | 64 | 32 | 12.0 | 20.0 | 0.00 | 0.00 | 0.00 | 34 | 1005.7 |
| 20260504001903 | 65 | 36 | 12.0 | 16.0 | 0.00 | 0.00 | 0.00 | 34 | 1005.6 |
| 20260504001405 | 65 | 23 | 12.0 | 17.0 | 0.00 | 0.00 | 0.00 | 33 | 1005.5 |
| 20260504000904 | 65 | 18 | 10.0 | 17.0 | 0.00 | 0.00 | 0.00 | 34 | 1005.4 |
| 20260503235904 | 65 | 41 | 12.0 | 22.0 | 0.00 | 0.00 | 0.00 | 33 | 1005.2 |
| 20260503235404 | 65 | 44 | 10.0 | 20.0 | 0.00 | 0.00 | 0.00 | 34 | 1005.1 |
| 20260503234904 | 65 | 40 | 11.0 | 22.0 | 0.00 | 0.00 | 0.00 | 33 | 1005.0 |
| 20260503234404 | 66 | 37 | 16.0 | 21.0 | 0.00 | 0.00 | 0.00 | 32 | 1005.0 |
| 20260503233904 | 66 | 42 | 14.0 | 22.0 | 0.00 | 0.00 | 0.00 | 32 | 1004.9 |
| 20260503233404 | 68 | 54 | 9.0 | 17.0 | 0.00 | 0.00 | 0.00 | 32 | 1004.8 |
| 20260503232904 | 68 | 56 | 8.0 | 13.0 | 0.00 | 0.00 | 0.00 | 30 | 1004.6 |
| 20260503231404 | 68 | 46 | 8.0 | 13.0 | 0.00 | 0.00 | 0.00 | 30 | 1004.6 |
| 20260503230905 | 68 | 63 | 5.0 | 16.0 | 0.00 | 0.00 | 0.00 | 30 | 1004.7 |
| 20260503230404 | 68 | 49 | 7.0 | 16.0 | 0.00 | 0.00 | 0.00 | 29 | 1004.6 |
| 20260503225904 | 68 | 49 | 7.0 | 16.0 | 0.00 | 0.00 | 0.00 | 29 | 1004.5 |
| 20260503225404 | 69 | 57 | 7.0 | 16.0 | 0.00 | 0.00 | 0.00 | 29 | 1004.5 |
| 20260503224904 | 69 | 51 | 8.0 | 17.0 | 0.00 | 0.00 | 0.00 | 28 | 1004.6 |
| 20260503224404 | 69 | 58 | 7.0 | 15.0 | 0.00 | 0.00 | 0.00 | 28 | 1004.6 |
| 20260503223904 | 69 | 44 | 6.0 | 12.0 | 0.00 | 0.00 | 0.00 | 30 | 1004.7 |
| 20260503223405 | 69 | 49 | 10.0 | 16.0 | 0.00 | 0.00 | 0.00 | 28 | 1004.7 |
| 20260503222904 | 69 | 47 | 9.0 | 14.0 | 0.00 | 0.00 | 0.00 | 28 | 1004.8 |
| 20260503222404 | 69 | 36 | 8.0 | 17.0 | 0.00 | 0.00 | 0.00 | 28 | 1004.8 |
| 20260503221904 | 70 | 58 | 10.0 | 15.0 | 0.00 | 0.00 | 0.00 | 28 | 1004.9 |
| 20260503220901 | 71 | 53 | 10.0 | 18.0 | 0.00 | 0.00 | 0.00 | 27 | 1004.6 |
| 20260503220401 | 71 | 57 | 9.0 | 14.0 | 0.00 | 0.00 | 0.00 | 26 | 1004.6 |
| 20260503215900 | 72 | 333 | 3.0 | 9.0 | 0.00 | 0.00 | 0.00 | 25 | 1004.8 |
| 20260503215400 | 72 | 210 | 2.0 | 5.0 | 0.00 | 0.00 | 0.00 | 23 | 1004.7 |
| 20260503214400 | 71 | 343 | 2.0 | 12.0 | 0.00 | 0.00 | 0.00 | 24 | 1004.9 |
| 20260503213900 | 72 | 8 | 7.0 | 12.0 | 0.00 | 0.00 | 0.00 | 24 | 1004.9 |
| 20260503212401 | 71 | 353 | 5.0 | 15.0 | 0.00 | 0.00 | 0.00 | 26 | 1005.1 |
| 20260503211900 | 71 | 24 | 4.0 | 12.0 | 0.00 | 0.00 | 0.00 | 26 | 1005.2 |
| 20260503211401 | 71 | 171 | 5.0 | 12.0 | 0.00 | 0.00 | 0.00 | 23 | 1005.2 |
| 20260503210901 | 71 | 284 | 4.0 | 12.0 | 0.00 | 0.00 | 0.00 | 24 | 1005.3 |
| 20260503210402 | 71 | 295 | 10.0 | 18.0 | 0.00 | 0.00 | 0.00 | 24 | 1005.3 |
| 20260503205901 | 71 | 232 | 5.0 | 12.0 | 0.00 | 0.00 | 0.00 | 24 | 1005.4 |
| 20260503205400 | 71 | 44 | 3.0 | 13.0 | 0.00 | 0.00 | 0.00 | 24 | 1005.5 |
| 20260503204901 | 71 | 260 | 5.0 | 10.0 | 0.00 | 0.00 | 0.00 | 26 | 1005.7 |
| 20260503204400 | 71 | 282 | 4.0 | 7.0 | 0.00 | 0.00 | 0.00 | 27 | 1005.7 |
| 20260503203901 | 70 | 327 | 1.0 | 5.0 | 0.00 | 0.00 | 0.00 | 25 | 1005.7 |
| 20260503202400 | 69 | 281 | 6.0 | 14.0 | 0.00 | 0.00 | 0.00 | 26 | 1006.0 |
| 20260503201900 | 69 | 267 | 5.0 | 12.0 | 0.00 | 0.00 | 0.00 | 25 | 1006.3 |
| 20260503201401 | 70 | 289 | 5.0 | 12.0 | 0.00 | 0.00 | 0.00 | 27 | 1006.3 |
| 20260503200901 | 70 | 289 | 6.0 | 12.0 | 0.00 | 0.00 | 0.00 | 27 | 1006.3 |
| 20260503200401 | 69 | 276 | 3.0 | 12.0 | 0.00 | 0.00 | 0.00 | 26 | 1006.4 |
| 20260503195900 | 69 | 315 | 6.0 | 12.0 | 0.00 | 0.00 | 0.00 | 28 | 1006.5 |
| 20260503195400 | 69 | 320 | 4.0 | 10.0 | 0.00 | 0.00 | 0.00 | 28 | 1006.6 |
| 20260503194900 | 68 | 327 | 6.0 | 14.0 | 0.00 | 0.00 | 0.00 | 29 | 1006.7 |
| 20260503194400 | 68 | 351 | 3.0 | 8.0 | 0.00 | 0.00 | 0.00 | 29 | 1006.9 |
| 20260503193900 | 68 | 332 | 7.0 | 13.0 | 0.00 | 0.00 | 0.00 | 28 | 1007.0 |
| 20260503193401 | 68 | 325 | 3.0 | 10.0 | 0.00 | 0.00 | 0.00 | 29 | 1007.1 |
| 20260503192401 | 67 | 85 | 4.0 | 14.0 | 0.00 | 0.00 | 0.00 | 28 | 1007.3 |
| 20260503191901 | 67 | 320 | 6.0 | 9.0 | 0.00 | 0.00 | 0.00 | 29 | 1007.4 |
| 20260503191401 | 67 | 357 | 7.0 | 16.0 | 0.00 | 0.00 | 0.00 | 30 | 1007.6 |
| 20260503190401 | 66 | 316 | 2.0 | 12.0 | 0.00 | 0.00 | 0.00 | 29 | 1007.7 |
| 20260503185402 | 67 | 354 | 7.0 | 12.0 | 0.00 | 0.00 | 0.00 | 30 | 1007.9 |
| 20260503184901 | 65 | 0 | 2.0 | 12.0 | 0.00 | 0.00 | 0.00 | 31 | 1007.9 |
| 20260503184400 | 65 | 358 | 8.0 | 16.0 | 0.00 | 0.00 | 0.00 | 30 | 1008.0 |
| 20260503183901 | 65 | 44 | 9.0 | 14.0 | 0.00 | 0.00 | 0.00 | 30 | 1008.0 |
| 20260503183401 | 65 | 26 | 5.0 | 10.0 | 0.00 | 0.00 | 0.00 | 30 | 1008.0 |
| 20260503182901 | 65 | 355 | 7.0 | 16.0 | 0.00 | 0.00 | 0.00 | 28 | 1008.1 |
| 20260503182401 | 65 | 28 | 5.0 | 10.0 | 0.00 | 0.00 | 0.00 | 31 | 1008.2 |
| 20260503181901 | 66 | 14 | 10.0 | 15.0 | 0.00 | 0.00 | 0.00 | 32 | 1008.2 |
| 20260503181401 | 65 | 321 | 7.0 | 13.0 | 0.00 | 0.00 | 0.00 | 30 | 1008.3 |
| 20260503180901 | 65 | 10 | 9.0 | 14.0 | 0.00 | 0.00 | 0.00 | 30 | 1008.4 |
| 20260503180402 | 65 | 23 | 7.0 | 12.0 | 0.00 | 0.00 | 0.00 | 32 | 1008.5 |
| 20260503175900 | 64 | 355 | 6.0 | 16.0 | 0.00 | 0.00 | 0.00 | 31 | 1008.6 |
| 20260503175401 | 65 | 22 | 10.0 | 15.0 | 0.00 | 0.00 | 0.00 | 30 | 1008.7 |
| 20260503174401 | 64 | 11 | 7.0 | 14.0 | 0.00 | 0.00 | 0.00 | 31 | 1008.8 |
| 20260503173401 | 65 | 35 | 12.0 | 16.0 | 0.00 | 0.00 | 0.00 | 30 | 1008.8 |
| 20260503172901 | 64 | 8 | 7.0 | 14.0 | 0.00 | 0.00 | 0.00 | 32 | 1008.8 |
| 20260503172400 | 64 | 47 | 6.0 | 12.0 | 0.00 | 0.00 | 0.00 | 30 | 1008.9 |
| 20260503171901 | 64 | 353 | 9.0 | 15.0 | 0.00 | 0.00 | 0.00 | 31 | 1009.1 |
| 20260503171401 | 65 | 0 | 11.0 | 15.0 | 0.00 | 0.00 | 0.00 | 31 | 1009.0 |
| 20260503170901 | 64 | 305 | 6.0 | 12.0 | 0.00 | 0.00 | 0.00 | 31 | 1009.0 |
| 20260503150902 | 57 | 255 | 7.0 | 10.0 | 0.00 | 0.00 | 0.00 | 33 | 1010.1 |
| 20260503130902 | 49 | 287 | 2.0 | 3.0 | 0.00 | 0.00 | 0.00 | 37 | 1010.5 |
| 20260503130402 | 49 | 330 | 2.0 | 3.0 | 0.00 | 0.00 | 0.00 | 37 | 1010.5 |
| 20260503110401 | 46 | 268 | 3.0 | 6.0 | 0.00 | 0.00 | 0.00 | 42 | 1010.9 |
| 20260503090402 | 47 | 0 | 3.0 | 5.0 | 0.00 | 0.00 | 0.00 | 44 | 1010.8 |
| 20260503081402 | 48 | 0 | 5.0 | 6.0 | 0.00 | 0.00 | 0.00 | 42 | 1010.8 |
| 20260503080902 | 49 | 0 | 5.0 | 6.0 | 0.00 | 0.00 | 0.00 | 42 | 1010.8 |
| 20260503080403 | 49 | 0 | 5.0 | 6.0 | 0.00 | 0.00 | 0.00 | 42 | 1010.8 |